| time (UTC) | temp F | wind direction | speed MPH | gust MPH | rain 1hr in | rain 24hr in | rain mn in | humidity % | barometer mb |
| 20260904154016 | 80 | 180 | 6.0 | 12.0 | 0.00 | 0.00 | 0.00 | 74 | 1016.9 |
| 20260904153016 | 79 | 180 | 6.0 | 11.0 | 0.00 | 0.00 | 0.00 | 74 | 1016.8 |
| 20260904152016 | 78 | 180 | 6.0 | 13.0 | 0.00 | 0.00 | 0.00 | 76 | 1016.6 |
| 20260904151016 | 78 | 180 | 6.0 | 12.0 | 0.00 | 0.00 | 0.00 | 77 | 1016.7 |
| 20260904150016 | 77 | 180 | 5.0 | 10.0 | 0.00 | 0.00 | 0.00 | 79 | 1016.6 |
| 20260904145016 | 77 | 157 | 4.0 | 9.0 | 0.00 | 0.00 | 0.00 | 80 | 1016.8 |
| 20260904144016 | 75 | 157 | 5.0 | 9.0 | 0.00 | 0.00 | 0.00 | 83 | 1016.8 |
| 20260904142016 | 75 | 157 | 6.0 | 12.0 | 0.00 | 0.00 | 0.00 | 83 | 1016.4 |
| 20260904141016 | 75 | 180 | 5.0 | 11.0 | 0.00 | 0.00 | 0.00 | 85 | 1016.4 |
| 20260904140016 | 75 | 180 | 7.0 | 13.0 | 0.00 | 0.00 | 0.00 | 85 | 1016.3 |
| 20260904134016 | 74 | 180 | 5.0 | 11.0 | 0.00 | 0.00 | 0.00 | 87 | 1015.9 |
| 20260904133116 | 73 | 180 | 5.0 | 12.0 | 0.00 | 0.00 | 0.00 | 88 | 1015.8 |
| 20260904132016 | 73 | 157 | 4.0 | 9.0 | 0.00 | 0.00 | 0.00 | 88 | 1015.7 |
| 20260904131016 | 72 | 157 | 4.0 | 9.0 | 0.00 | 0.00 | 0.00 | 88 | 1015.6 |
| 20260904130016 | 72 | 180 | 4.0 | 6.0 | 0.00 | 0.00 | 0.00 | 88 | 1015.5 |
| 20260904124116 | 72 | 180 | 4.0 | 9.0 | 0.00 | 0.00 | 0.00 | 88 | 1015.0 |
| 20260904123016 | 72 | 180 | 4.0 | 6.0 | 0.00 | 0.00 | 0.00 | 88 | 1014.9 |
| 20260904122017 | 72 | 180 | 4.0 | 9.0 | 0.00 | 0.00 | 0.00 | 87 | 1014.7 |
| 20260904121117 | 72 | 180 | 5.0 | 9.0 | 0.00 | 0.00 | 0.00 | 87 | 1014.6 |
| 20260904120016 | 72 | 202 | 8.0 | 13.0 | 0.00 | 0.00 | 0.00 | 87 | 1014.6 |
| 20260904115016 | 72 | 180 | 8.0 | 13.0 | 0.00 | 0.00 | 0.00 | 87 | 1014.7 |
| 20260904114016 | 72 | 180 | 8.0 | 14.0 | 0.00 | 0.00 | 0.00 | 86 | 1014.7 |
| 20260904113016 | 72 | 180 | 8.0 | 13.0 | 0.00 | 0.00 | 0.00 | 86 | 1014.8 |
| 20260904112016 | 73 | 180 | 8.0 | 14.0 | 0.00 | 0.00 | 0.00 | 86 | 1015.0 |
| 20260904111016 | 73 | 180 | 8.0 | 12.0 | 0.00 | 0.00 | 0.00 | 86 | 1014.9 |
| 20260904110017 | 73 | 180 | 7.0 | 11.0 | 0.00 | 0.00 | 0.00 | 86 | 1014.9 |
| 20260904105016 | 73 | 180 | 7.0 | 15.0 | 0.00 | 0.00 | 0.00 | 85 | 1014.9 |
| 20260904104016 | 73 | 180 | 9.0 | 15.0 | 0.00 | 0.00 | 0.00 | 85 | 1014.9 |
| 20260904103016 | 73 | 180 | 8.0 | 14.0 | 0.00 | 0.00 | 0.00 | 85 | 1014.9 |
| 20260904102016 | 73 | 180 | 9.0 | 16.0 | 0.00 | 0.00 | 0.00 | 85 | 1015.0 |
| 20260904101016 | 73 | 180 | 9.0 | 17.0 | 0.00 | 0.00 | 0.00 | 85 | 1014.9 |
| 20260904100016 | 73 | 202 | 10.0 | 17.0 | 0.00 | 0.00 | 0.00 | 85 | 1014.9 |
| 20260904095016 | 73 | 180 | 8.0 | 15.0 | 0.00 | 0.00 | 0.00 | 85 | 1014.9 |
| 20260904094117 | 73 | 180 | 7.0 | 15.0 | 0.00 | 0.00 | 0.00 | 84 | 1014.9 |
| 20260904093116 | 73 | 180 | 7.0 | 15.0 | 0.00 | 0.00 | 0.00 | 84 | 1014.8 |
| 20260904092016 | 73 | 180 | 8.0 | 13.0 | 0.00 | 0.00 | 0.00 | 84 | 1015.1 |
| 20260904091016 | 73 | 180 | 6.0 | 12.0 | 0.00 | 0.00 | 0.00 | 83 | 1015.1 |
| 20260904090116 | 73 | 180 | 6.0 | 10.0 | 0.00 | 0.00 | 0.00 | 82 | 1015.2 |
| 20260904085017 | 74 | 180 | 7.0 | 14.0 | 0.00 | 0.00 | 0.00 | 81 | 1015.1 |
| 20260904083117 | 74 | 180 | 7.0 | 16.0 | 0.00 | 0.00 | 0.00 | 79 | 1015.3 |
| 20260904082016 | 74 | 180 | 7.0 | 13.0 | 0.00 | 0.00 | 0.00 | 78 | 1015.2 |
| 20260904081016 | 75 | 180 | 6.0 | 11.0 | 0.00 | 0.00 | 0.00 | 77 | 1015.2 |
| 20260904080016 | 75 | 180 | 7.0 | 14.0 | 0.00 | 0.00 | 0.00 | 77 | 1015.2 |
| 20260904075017 | 75 | 157 | 8.0 | 15.0 | 0.00 | 0.00 | 0.00 | 77 | 1015.5 |
| 20260904074117 | 75 | 180 | 6.0 | 12.0 | 0.00 | 0.00 | 0.00 | 77 | 1015.7 |
| 20260904073016 | 75 | 180 | 8.0 | 15.0 | 0.00 | 0.00 | 0.00 | 76 | 1015.6 |
| 20260904072016 | 76 | 180 | 8.0 | 18.0 | 0.00 | 0.00 | 0.00 | 75 | 1015.7 |
| 20260904071017 | 76 | 180 | 8.0 | 16.0 | 0.00 | 0.00 | 0.00 | 75 | 1015.7 |
| 20260904070016 | 76 | 180 | 9.0 | 20.0 | 0.00 | 0.00 | 0.00 | 74 | 1015.7 |
| 20260904065016 | 77 | 180 | 10.0 | 19.0 | 0.00 | 0.00 | 0.00 | 73 | 1015.6 |
| 20260904064016 | 77 | 180 | 9.0 | 17.0 | 0.00 | 0.00 | 0.00 | 71 | 1015.7 |
| 20260904063016 | 77 | 180 | 7.0 | 14.0 | 0.00 | 0.00 | 0.00 | 70 | 1015.5 |
| 20260904062016 | 77 | 180 | 7.0 | 15.0 | 0.00 | 0.00 | 0.00 | 69 | 1015.5 |
| 20260904061016 | 78 | 180 | 7.0 | 14.0 | 0.00 | 0.00 | 0.00 | 68 | 1015.5 |
| 20260904060016 | 78 | 180 | 7.0 | 13.0 | 0.00 | 0.00 | 0.00 | 67 | 1015.6 |
| 20260904055016 | 78 | 157 | 6.0 | 10.0 | 0.00 | 0.00 | 0.00 | 66 | 1015.6 |
| 20260904054017 | 78 | 180 | 7.0 | 13.0 | 0.00 | 0.00 | 0.00 | 65 | 1015.6 |
| 20260904053016 | 79 | 180 | 6.0 | 16.0 | 0.00 | 0.00 | 0.00 | 64 | 1015.6 |
| 20260904052017 | 79 | 180 | 7.0 | 13.0 | 0.00 | 0.00 | 0.00 | 64 | 1015.3 |
| 20260904050017 | 80 | 180 | 7.0 | 13.0 | 0.00 | 0.00 | 0.00 | 63 | 1015.2 |
| 20260904045016 | 80 | 180 | 9.0 | 17.0 | 0.00 | 0.00 | 0.00 | 63 | 1015.1 |
| 20260904044016 | 80 | 180 | 8.0 | 15.0 | 0.00 | 0.00 | 0.00 | 63 | 1015.1 |
| 20260904043016 | 80 | 180 | 6.0 | 14.0 | 0.00 | 0.00 | 0.00 | 63 | 1015.2 |
| 20260904041016 | 81 | 157 | 6.0 | 12.0 | 0.00 | 0.00 | 0.00 | 62 | 1015.0 |
| 20260904035016 | 81 | 157 | 6.0 | 12.0 | 0.00 | 0.00 | 0.00 | 62 | 1015.1 |
| 20260904034016 | 81 | 157 | 7.0 | 14.0 | 0.00 | 0.00 | 0.00 | 62 | 1015.2 |
| 20260904033116 | 82 | 157 | 7.0 | 14.0 | 0.00 | 0.00 | 0.00 | 62 | 1014.9 |
| 20260904032016 | 82 | 157 | 7.0 | 15.0 | 0.00 | 0.00 | 0.00 | 61 | 1014.8 |
| 20260904031016 | 82 | 135 | 8.0 | 15.0 | 0.00 | 0.00 | 0.00 | 60 | 1014.7 |
| 20260904030016 | 83 | 135 | 6.0 | 12.0 | 0.00 | 0.00 | 0.00 | 59 | 1014.4 |
| 20260904025016 | 83 | 135 | 6.0 | 12.0 | 0.00 | 0.00 | 0.00 | 57 | 1014.2 |
| 20260904024016 | 84 | 135 | 8.0 | 14.0 | 0.00 | 0.00 | 0.00 | 55 | 1014.1 |
| 20260904023016 | 85 | 135 | 7.0 | 15.0 | 0.00 | 0.00 | 0.00 | 54 | 1013.9 |
| 20260904022116 | 85 | 135 | 6.0 | 10.0 | 0.00 | 0.00 | 0.00 | 53 | 1013.7 |
| 20260904021016 | 86 | 135 | 5.0 | 10.0 | 0.00 | 0.00 | 0.00 | 51 | 1013.5 |
| 20260904020018 | 86 | 135 | 5.0 | 11.0 | 0.00 | 0.00 | 0.00 | 50 | 1013.1 |
| 20260904015017 | 87 | 135 | 5.0 | 12.0 | 0.00 | 0.00 | 0.00 | 48 | 1012.7 |
| 20260904014016 | 87 | 157 | 4.0 | 6.0 | 0.00 | 0.00 | 0.00 | 48 | 1012.6 |
| 20260904013038 | 87 | 157 | 4.0 | 9.0 | 0.00 | 0.00 | 0.00 | 47 | 1012.5 |
| 20260904012016 | 88 | 157 | 5.0 | 9.0 | 0.00 | 0.00 | 0.00 | 47 | 1012.5 |
| 20260904011017 | 88 | 157 | 5.0 | 10.0 | 0.00 | 0.00 | 0.00 | 46 | 1012.5 |
| 20260904010100 | 88 | 157 | 4.0 | 9.0 | 0.00 | 0.00 | 0.00 | 46 | 1012.5 |
| 20260904005016 | 89 | 157 | 5.0 | 9.0 | 0.00 | 0.00 | 0.00 | 46 | 1012.5 |
| 20260904003016 | 90 | 180 | 5.0 | 12.0 | 0.00 | 0.00 | 0.00 | 45 | 1012.4 |
| 20260904001018 | 91 | 157 | 5.0 | 13.0 | 0.00 | 0.00 | 0.00 | 44 | 1012.2 |
| 20260903235016 | 92 | 135 | 7.0 | 13.0 | 0.00 | 0.00 | 0.00 | 43 | 1012.2 |
| 20260903234016 | 93 | 157 | 5.0 | 10.0 | 0.00 | 0.00 | 0.00 | 41 | 1012.1 |
| 20260903232016 | 95 | 157 | 5.0 | 11.0 | 0.00 | 0.00 | 0.00 | 37 | 1012.1 |
| 20260903231016 | 95 | 157 | 3.0 | 5.0 | 0.00 | 0.00 | 0.00 | 36 | 1012.2 |
| 20260903230117 | 95 | 135 | 3.0 | 5.0 | 0.00 | 0.00 | 0.00 | 37 | 1012.2 |
| 20260903225016 | 95 | 157 | 4.0 | 13.0 | 0.00 | 0.00 | 0.00 | 37 | 1012.1 |
| 20260903224117 | 95 | 157 | 4.0 | 8.0 | 0.00 | 0.00 | 0.00 | 37 | 1012.2 |
| 20260903223018 | 96 | 135 | 4.0 | 7.0 | 0.00 | 0.00 | 0.00 | 36 | 1012.2 |
| 20260903222016 | 97 | 135 | 4.0 | 7.0 | 0.00 | 0.00 | 0.00 | 35 | 1012.3 |
| 20260903221017 | 98 | 135 | 3.0 | 7.0 | 0.00 | 0.00 | 0.00 | 34 | 1012.4 |
| 20260903220016 | 98 | 180 | 4.0 | 6.0 | 0.00 | 0.00 | 0.00 | 34 | 1012.5 |
| 20260903214017 | 97 | 135 | 4.0 | 7.0 | 0.00 | 0.00 | 0.00 | 35 | 1012.4 |
| 20260903213017 | 96 | 112 | 4.0 | 7.0 | 0.00 | 0.00 | 0.00 | 36 | 1012.5 |
| 20260903212022 | 96 | 112 | 4.0 | 7.0 | 0.00 | 0.00 | 0.00 | 36 | 1012.5 |
| 20260903211016 | 96 | 90 | 5.0 | 12.0 | 0.00 | 0.00 | 0.00 | 36 | 1012.7 |
| 20260903210016 | 98 | 90 | 5.0 | 10.0 | 0.00 | 0.00 | 0.00 | 35 | 1013.0 |
| 20260903205021 | 100 | 135 | 5.0 | 10.0 | 0.00 | 0.00 | 0.00 | 34 | 1013.1 |
| 20260903204017 | 98 | 180 | 4.0 | 10.0 | 0.00 | 0.00 | 0.00 | 35 | 1013.2 |
| 20260903203016 | 96 | 90 | 5.0 | 11.0 | 0.00 | 0.00 | 0.00 | 37 | 1013.3 |
| 20260903202016 | 95 | 202 | 2.0 | 5.0 | 0.00 | 0.00 | 0.00 | 38 | 1013.4 |
| 20260903201117 | 95 | 202 | 3.0 | 5.0 | 0.00 | 0.00 | 0.00 | 38 | 1013.4 |
| 20260903200018 | 95 | 202 | 2.0 | 4.0 | 0.00 | 0.00 | 0.00 | 38 | 1013.6 |
| 20260903195016 | 97 | 180 | 6.0 | 11.0 | 0.00 | 0.00 | 0.00 | 36 | 1014.0 |
| 20260903194017 | 97 | 90 | 4.0 | 16.0 | 0.00 | 0.00 | 0.00 | 36 | 1014.1 |
| 20260903193016 | 97 | 157 | 8.0 | 15.0 | 0.00 | 0.00 | 0.00 | 37 | 1014.1 |
| 20260903192018 | 97 | 202 | 4.0 | 11.0 | 0.00 | 0.00 | 0.00 | 38 | 1014.3 |
| 20260903191016 | 97 | 202 | 5.0 | 11.0 | 0.00 | 0.00 | 0.00 | 38 | 1014.4 |
| 20260903185018 | 96 | 292 | 4.0 | 15.0 | 0.00 | 0.00 | 0.00 | 40 | 1014.9 |
| 20260903184017 | 96 | 202 | 8.0 | 14.0 | 0.00 | 0.00 | 0.00 | 39 | 1015.1 |
| 20260903183016 | 94 | 180 | 4.0 | 10.0 | 0.00 | 0.00 | 0.00 | 41 | 1015.2 |
| 20260903182017 | 96 | 202 | 9.0 | 17.0 | 0.00 | 0.00 | 0.00 | 40 | 1015.5 |
| 20260903181017 | 95 | 202 | 7.0 | 15.0 | 0.00 | 0.00 | 0.00 | 41 | 1015.5 |
| 20260903180017 | 94 | 202 | 6.0 | 17.0 | 0.00 | 0.00 | 0.00 | 41 | 1015.6 |
| 20260903175017 | 95 | 202 | 8.0 | 18.0 | 0.00 | 0.00 | 0.00 | 41 | 1016.0 |
| 20260903174017 | 93 | 202 | 9.0 | 14.0 | 0.00 | 0.00 | 0.00 | 43 | 1016.1 |
| 20260903173017 | 93 | 180 | 9.0 | 16.0 | 0.00 | 0.00 | 0.00 | 44 | 1016.2 |
| 20260903172017 | 93 | 180 | 7.0 | 12.0 | 0.00 | 0.00 | 0.00 | 45 | 1016.3 |
| 20260903171017 | 92 | 180 | 7.0 | 12.0 | 0.00 | 0.00 | 0.00 | 45 | 1016.3 |
| 20260903170017 | 93 | 202 | 9.0 | 16.0 | 0.00 | 0.00 | 0.00 | 45 | 1016.1 |
| 20260903165017 | 92 | 202 | 7.0 | 18.0 | 0.00 | 0.00 | 0.00 | 47 | 1016.3 |
| 20260903164017 | 91 | 202 | 10.0 | 20.0 | 0.00 | 0.00 | 0.00 | 48 | 1016.2 |
| 20260903163017 | 90 | 202 | 8.0 | 15.0 | 0.00 | 0.00 | 0.00 | 47 | 1016.3 |
| 20260903162017 | 89 | 180 | 7.0 | 15.0 | 0.00 | 0.00 | 0.00 | 50 | 1016.3 |
| 20260903161019 | 88 | 202 | 11.0 | 18.0 | 0.00 | 0.00 | 0.00 | 51 | 1016.2 |
| 20260903160017 | 87 | 202 | 10.0 | 16.0 | 0.00 | 0.00 | 0.00 | 53 | 1016.1 |
| 20260903155017 | 87 | 202 | 8.0 | 16.0 | 0.00 | 0.00 | 0.00 | 54 | 1016.1 |